Time,TemperatureF,DewpointF,PressureIn,WindDirection,WindDirectionDegrees,WindSpeedMPH,WindSpeedGustMPH,Humidity,HourlyPrecipIn,Conditions,Clouds,dailyrainin,SoftwareType,DateUTC
2013-04-29 00:05:00,46.9,34.0,30.25,WSW,246,0.0,1.0,61,0.00,,,0.00,weatherlink.com 1.10,2013-04-29 04:05:00,
2013-04-29 00:20:00,46.5,34.0,30.25,WSW,245,0.0,1.0,63,0.00,,,0.00,weatherlink.com 1.10,2013-04-29 04:20:00,
2013-04-29 00:35:00,46.3,36.0,30.25,WSW,245,0.0,0.0,68,0.00,,,0.00,weatherlink.com 1.10,2013-04-29 04:35:00,
2013-04-29 00:50:00,46.3,37.0,30.25,WSW,246,0.0,0.0,71,0.00,,,0.00,weatherlink.com 1.10,2013-04-29 04:50:00,
2013-04-29 01:05:00,46.1,38.0,30.25,WSW,246,0.0,0.0,72,0.00,,,0.00,weatherlink.com 1.10,2013-04-29 05:05:00,
2013-04-29 01:20:00,45.7,38.0,30.25,WSW,246,0.0,1.0,74,0.00,,,0.00,weatherlink.com 1.10,2013-04-29 05:20:00,
2013-04-29 01:35:00,45.2,38.0,30.24,WSW,246,0.0,0.0,76,0.00,,,0.00,weatherlink.com 1.10,2013-04-29 05:35:00,
2013-04-29 01:50:00,44.9,38.0,30.24,WSW,246,0.0,0.0,78,0.00,,,0.00,weatherlink.com 1.10,2013-04-29 05:50:00,
2013-04-29 02:05:00,44.8,40.0,30.23,WSW,246,0.0,0.0,82,0.00,,,0.00,weatherlink.com 1.10,2013-04-29 06:05:00,
2013-04-29 02:20:00,44.9,40.0,30.23,WSW,246,0.0,1.0,82,0.00,,,0.00,weatherlink.com 1.10,2013-04-29 06:20:00,
2013-04-29 02:35:00,44.7,40.0,30.22,WSW,246,0.0,0.0,83,0.00,,,0.00,weatherlink.com 1.10,2013-04-29 06:35:00,
2013-04-29 02:50:00,44.6,40.0,30.22,WSW,246,0.0,0.0,84,0.00,,,0.00,weatherlink.com 1.10,2013-04-29 06:50:00,
2013-04-29 03:05:00,44.6,40.0,30.21,WSW,246,0.0,1.0,85,0.00,,,0.00,weatherlink.com 1.10,2013-04-29 07:05:00,
2013-04-29 03:20:00,44.5,41.0,30.21,WSW,246,0.0,0.0,87,0.00,,,0.00,weatherlink.com 1.10,2013-04-29 07:20:00,
2013-04-29 03:35:00,44.5,41.0,30.21,WSW,246,0.0,0.0,88,0.00,,,0.00,weatherlink.com 1.10,2013-04-29 07:35:00,
2013-04-29 03:50:00,44.4,41.0,30.21,WSW,246,0.0,0.0,89,0.00,,,0.00,weatherlink.com 1.10,2013-04-29 07:50:00,
2013-04-29 04:05:00,44.1,41.0,30.21,WSW,246,0.0,0.0,90,0.00,,,0.00,weatherlink.com 1.10,2013-04-29 08:05:00,
2013-04-29 04:20:00,44.0,41.0,30.22,WSW,246,0.0,0.0,90,0.00,,,0.00,weatherlink.com 1.10,2013-04-29 08:20:00,
2013-04-29 04:35:00,43.7,41.0,30.22,WSW,246,0.0,0.0,90,0.00,,,0.00,weatherlink.com 1.10,2013-04-29 08:35:00,
2013-04-29 04:50:00,43.6,41.0,30.22,WSW,246,0.0,0.0,91,0.00,,,0.00,weatherlink.com 1.10,2013-04-29 08:50:00,
2013-04-29 05:05:00,43.4,41.0,30.22,WSW,246,0.0,1.0,92,0.00,,,0.00,weatherlink.com 1.10,2013-04-29 09:05:00,
2013-04-29 05:20:00,43.2,41.0,30.22,WSW,246,0.0,0.0,92,0.00,,,0.00,weatherlink.com 1.10,2013-04-29 09:20:00,
2013-04-29 05:35:00,43.2,41.0,30.23,WSW,246,0.0,0.0,92,0.00,,,0.00,weatherlink.com 1.10,2013-04-29 09:35:00,
2013-04-29 05:50:00,43.2,41.0,30.23,WSW,246,0.0,0.0,93,0.00,,,0.00,weatherlink.com 1.10,2013-04-29 09:50:00,
2013-04-29 06:05:00,43.1,41.0,30.24,WSW,246,0.0,0.0,93,0.00,,,0.00,weatherlink.com 1.10,2013-04-29 10:05:00,
2013-04-29 06:20:00,43.3,42.0,30.24,WSW,246,0.0,0.0,93,0.00,,,0.00,weatherlink.com 1.10,2013-04-29 10:20:00,
2013-04-29 06:35:00,43.4,42.0,30.24,WSW,246,0.0,0.0,93,0.00,,,0.00,weatherlink.com 1.10,2013-04-29 10:35:00,
2013-04-29 06:50:00,43.8,42.0,30.24,WSW,247,0.0,0.0,94,0.00,,,0.00,weatherlink.com 1.10,2013-04-29 10:50:00,
2013-04-29 07:06:00,44.4,43.0,30.25,WSW,246,0.0,0.0,94,0.00,,,0.00,weatherlink.com 1.10,2013-04-29 11:06:00,
2013-04-29 07:21:00,45.5,44.0,30.25,WSW,246,0.0,1.0,94,0.00,,,0.00,weatherlink.com 1.10,2013-04-29 11:21:00,
2013-04-29 07:36:00,47.3,45.0,30.25,SSW,208,0.0,1.0,90,0.00,,,0.00,weatherlink.com 1.10,2013-04-29 11:36:00,
2013-04-29 07:51:00,48.7,45.0,30.26,SW,218,0.0,1.0,87,0.00,,,0.00,weatherlink.com 1.10,2013-04-29 11:51:00,
2013-04-29 08:06:00,50.1,46.0,30.25,SSW,199,1.0,1.0,85,0.00,,,0.00,weatherlink.com 1.10,2013-04-29 12:06:00,
2013-04-29 08:21:00,51.8,47.0,30.25,SW,229,0.0,1.0,82,0.00,,,0.00,weatherlink.com 1.10,2013-04-29 12:21:00,
2013-04-29 08:36:00,53.4,47.0,30.25,SW,235,0.0,2.0,79,0.00,,,0.00,weatherlink.com 1.10,2013-04-29 12:36:00,
2013-04-29 08:51:00,55.3,48.0,30.25,WSW,245,0.0,1.0,75,0.00,,,0.00,weatherlink.com 1.10,2013-04-29 12:51:00,
2013-04-29 09:06:00,56.6,47.0,30.25,SW,219,2.0,3.0,71,0.00,,,0.00,weatherlink.com 1.10,2013-04-29 13:06:00,
2013-04-29 09:21:00,58.1,48.0,30.24,ESE,108,1.0,2.0,69,0.00,,,0.00,weatherlink.com 1.10,2013-04-29 13:21:00,
2013-04-29 09:36:00,59.4,48.0,30.24,ESE,112,0.0,2.0,65,0.00,,,0.00,weatherlink.com 1.10,2013-04-29 13:36:00,
2013-04-29 09:51:00,60.4,47.0,30.24,WSW,250,0.0,3.0,61,0.00,,,0.00,weatherlink.com 1.10,2013-04-29 13:51:00,
2013-04-29 10:06:00,62.0,46.0,30.24,SW,214,3.0,3.0,57,0.00,,,0.00,weatherlink.com 1.10,2013-04-29 14:06:00,
2013-04-29 10:21:00,62.0,45.0,30.23,WSW,250,2.0,4.0,55,0.00,,,0.00,weatherlink.com 1.10,2013-04-29 14:21:00,
2013-04-29 10:36:00,63.1,45.0,30.24,WSW,252,2.0,6.0,53,0.00,,,0.00,weatherlink.com 1.10,2013-04-29 14:36:00,
2013-04-29 10:51:00,63.5,43.0,30.23,WSW,249,1.0,5.0,47,0.00,,,0.00,weatherlink.com 1.10,2013-04-29 14:51:00,
2013-04-29 11:06:00,64.6,44.0,30.23,ESE,110,4.0,4.0,48,0.00,,,0.00,weatherlink.com 1.10,2013-04-29 15:06:00,
2013-04-29 11:21:00,65.5,43.0,30.23,West,270,1.0,6.0,44,0.00,,,0.00,weatherlink.com 1.10,2013-04-29 15:21:00,
2013-04-29 11:37:00,66.7,42.0,30.22,ESE,113,2.0,4.0,41,0.00,,,0.00,weatherlink.com 1.10,2013-04-29 15:37:00,
2013-04-29 11:52:00,66.9,40.0,30.22,SW,231,1.0,5.0,38,0.00,,,0.00,weatherlink.com 1.10,2013-04-29 15:52:00,
2013-04-29 12:07:00,66.6,40.0,30.21,West,277,4.0,5.0,38,0.00,,,0.00,weatherlink.com 1.10,2013-04-29 16:07:00,
2013-04-29 12:23:00,66.9,38.0,30.21,WSW,252,2.0,6.0,35,0.00,,,0.00,weatherlink.com 1.10,2013-04-29 16:23:00,
2013-04-29 12:37:00,67.7,40.0,30.21,East,82,3.0,5.0,37,0.00,,,0.00,weatherlink.com 1.10,2013-04-29 16:37:00,
2013-04-29 12:52:00,68.1,39.0,30.20,East,91,3.0,6.0,34,0.00,,,0.00,weatherlink.com 1.10,2013-04-29 16:52:00,
2013-04-29 13:07:00,68.1,40.0,30.20,SE,130,1.0,6.0,36,0.00,,,0.00,weatherlink.com 1.10,2013-04-29 17:07:00,
2013-04-29 13:22:00,68.3,40.0,30.20,SW,226,3.0,5.0,35,0.00,,,0.00,weatherlink.com 1.10,2013-04-29 17:22:00,
2013-04-29 13:37:00,68.5,39.0,30.19,West,272,3.0,7.0,34,0.00,,,0.00,weatherlink.com 1.10,2013-04-29 17:37:00,
2013-04-29 13:52:00,69.0,39.0,30.19,East,87,2.0,7.0,33,0.00,,,0.00,weatherlink.com 1.10,2013-04-29 17:52:00,
2013-04-29 14:07:00,68.7,38.0,30.19,SE,144,3.0,7.0,32,0.00,,,0.00,weatherlink.com 1.10,2013-04-29 18:07:00,
2013-04-29 14:22:00,68.9,37.0,30.19,ESE,120,2.0,7.0,31,0.00,,,0.00,weatherlink.com 1.10,2013-04-29 18:22:00,
2013-04-29 14:37:00,69.2,38.0,30.18,WSW,255,3.0,6.0,32,0.00,,,0.00,weatherlink.com 1.10,2013-04-29 18:37:00,
2013-04-29 14:52:00,69.9,37.0,30.18,WSW,249,2.0,5.0,30,0.00,,,0.00,weatherlink.com 1.10,2013-04-29 18:52:00,
2013-04-29 15:07:00,69.7,35.0,30.18,West,280,1.0,5.0,28,0.00,,,0.00,weatherlink.com 1.10,2013-04-29 19:07:00,
2013-04-29 15:22:00,68.8,35.0,30.17,WSW,241,1.0,7.0,29,0.00,,,0.00,weatherlink.com 1.10,2013-04-29 19:22:00,
2013-04-29 15:37:00,68.6,34.0,30.17,SSE,151,1.0,4.0,28,0.00,,,0.00,weatherlink.com 1.10,2013-04-29 19:37:00,
2013-04-29 15:52:00,68.1,33.0,30.17,SSW,200,0.0,5.0,27,0.00,,,0.00,weatherlink.com 1.10,2013-04-29 19:52:00,
2013-04-29 16:07:00,67.7,33.0,30.17,WSW,242,1.0,5.0,28,0.00,,,0.00,weatherlink.com 1.10,2013-04-29 20:07:00,
2013-04-29 16:22:00,67.5,31.0,30.17,SSW,208,2.0,5.0,26,0.00,,,0.00,weatherlink.com 1.10,2013-04-29 20:22:00,
2013-04-29 16:37:00,66.6,31.0,30.17,ESE,102,1.0,5.0,27,0.00,,,0.00,weatherlink.com 1.10,2013-04-29 20:37:00,
2013-04-29 16:52:00,65.6,32.0,30.17,WSW,257,1.0,5.0,29,0.00,,,0.00,weatherlink.com 1.10,2013-04-29 20:52:00,
2013-04-29 17:07:00,65.2,33.0,30.17,WSW,242,1.0,5.0,30,0.00,,,0.00,weatherlink.com 1.10,2013-04-29 21:07:00,
2013-04-29 17:22:00,64.4,34.0,30.17,SSW,205,2.0,5.0,32,0.00,,,0.00,weatherlink.com 1.10,2013-04-29 21:22:00,
2013-04-29 17:37:00,64.4,34.0,30.17,WSW,252,0.0,2.0,32,0.00,,,0.00,weatherlink.com 1.10,2013-04-29 21:37:00,
2013-04-29 17:52:00,63.4,32.0,30.18,SSW,200,0.0,5.0,31,0.00,,,0.00,weatherlink.com 1.10,2013-04-29 21:52:00,
2013-04-29 18:07:00,62.5,33.0,30.18,West,278,1.0,4.0,33,0.00,,,0.00,weatherlink.com 1.10,2013-04-29 22:07:00,
2013-04-29 18:22:00,61.6,32.0,30.19,SSW,212,0.0,2.0,33,0.00,,,0.00,weatherlink.com 1.10,2013-04-29 22:22:00,
2013-04-29 18:37:00,60.8,33.0,30.19,West,271,1.0,2.0,35,0.00,,,0.00,weatherlink.com 1.10,2013-04-29 22:37:00,
2013-04-29 18:52:00,59.8,32.0,30.19,WSW,246,1.0,3.0,35,0.00,,,0.00,weatherlink.com 1.10,2013-04-29 22:52:00,
2013-04-29 19:07:00,59.0,30.0,30.20,WSW,249,0.0,3.0,33,0.00,,,0.00,weatherlink.com 1.10,2013-04-29 23:07:00,
2013-04-29 19:22:00,58.0,30.0,30.20,SSW,205,0.0,3.0,34,0.00,,,0.00,weatherlink.com 1.10,2013-04-29 23:22:00,
2013-04-29 19:37:00,57.0,28.0,30.20,West,278,0.0,2.0,33,0.00,,,0.00,weatherlink.com 1.10,2013-04-29 23:37:00,
2013-04-29 19:52:00,56.3,29.0,30.20,South,188,1.0,1.0,36,0.00,,,0.00,weatherlink.com 1.10,2013-04-29 23:52:00,
2013-04-29 20:07:00,55.9,30.0,30.20,WSW,249,0.0,1.0,37,0.00,,,0.00,weatherlink.com 1.10,2013-04-30 00:07:00,
2013-04-29 20:22:00,55.5,29.0,30.21,WSW,249,1.0,1.0,37,0.00,,,0.00,weatherlink.com 1.10,2013-04-30 00:22:00,
2013-04-29 20:37:00,55.3,29.0,30.22,WSW,243,0.0,1.0,37,0.00,,,0.00,weatherlink.com 1.10,2013-04-30 00:37:00,
2013-04-29 20:52:00,55.0,30.0,30.22,West,266,0.0,1.0,38,0.00,,,0.00,weatherlink.com 1.10,2013-04-30 00:52:00,
2013-04-29 21:07:00,54.8,31.0,30.22,SW,231,0.0,1.0,41,0.00,,,0.00,weatherlink.com 1.10,2013-04-30 01:07:00,
2013-04-29 21:22:00,54.7,31.0,30.23,SW,231,0.0,1.0,41,0.00,,,0.00,weatherlink.com 1.10,2013-04-30 01:22:00,
2013-04-29 21:37:00,54.5,33.0,30.23,SW,232,0.0,0.0,44,0.00,,,0.00,weatherlink.com 1.10,2013-04-30 01:37:00,
2013-04-29 21:52:00,54.3,34.0,30.23,SW,232,0.0,1.0,46,0.00,,,0.00,weatherlink.com 1.10,2013-04-30 01:52:00,
2013-04-29 22:07:00,53.7,34.0,30.23,SW,232,0.0,0.0,47,0.00,,,0.00,weatherlink.com 1.10,2013-04-30 02:07:00,
2013-04-29 22:22:00,52.9,33.0,30.23,SW,232,0.0,0.0,48,0.00,,,0.00,weatherlink.com 1.10,2013-04-30 02:22:00,
2013-04-29 22:37:00,52.5,33.0,30.23,SW,232,0.0,0.0,47,0.00,,,0.00,weatherlink.com 1.10,2013-04-30 02:37:00,
2013-04-29 22:52:00,52.2,33.0,30.23,WSW,249,0.0,0.0,49,0.00,,,0.00,weatherlink.com 1.10,2013-04-30 02:52:00,
2013-04-29 23:07:00,52.2,33.0,30.23,SW,235,0.0,1.0,49,0.00,,,0.00,weatherlink.com 1.10,2013-04-30 03:07:00,
2013-04-29 23:22:00,52.2,34.0,30.23,SW,235,0.0,0.0,50,0.00,,,0.00,weatherlink.com 1.10,2013-04-30 03:22:00,
2013-04-29 23:37:00,52.2,34.0,30.23,SW,235,0.0,0.0,51,0.00,,,0.00,weatherlink.com 1.10,2013-04-30 03:37:00,
2013-04-29 23:52:00,52.0,36.0,30.23,SW,235,0.0,0.0,55,0.00,,,0.00,weatherlink.com 1.10,2013-04-30 03:52:00,